Previsão horária em Alindao

Hoje, 15 Junho, Terça-feira

Tempo Temperatura Precipitação Vento Pressão Humidade
00:00 +24°C° 0 mm 1 m/s 720 mmHg 82%
01:00 +24°C° 0 mm 1 m/s 720 mmHg 83%
02:00 +23°C° 0.3 mm 1 m/s 719 mmHg 87%
03:00 +23°C° 0.3 mm 1 m/s 719 mmHg 90%
04:00 +23°C° 0.3 mm 1 m/s 719 mmHg 94%
05:00 +23°C° 0.1 mm 1 m/s 720 mmHg 93%
06:00 +24°C° 0.1 mm 1 m/s 720 mmHg 91%
07:00 +24°C° 0.1 mm 1 m/s 720 mmHg 90%
08:00 +26°C° 0 mm 1 m/s 720 mmHg 85%
09:00 +27°C° 0 mm 2 m/s 720 mmHg 80%
10:00 +28°C° 0 mm 2 m/s 720 mmHg 75%
11:00 +30°C° 0 mm 2 m/s 720 mmHg 68%
12:00 +31°C° 0 mm 2 m/s 719 mmHg 61%
13:00 +34°C° 0 mm 2 m/s 719 mmHg 55%
14:00 +34°C° 0 mm 2 m/s 719 mmHg 55%
15:00 +34°C° 0 mm 2 m/s 718 mmHg 55%
16:00 +33°C° 0 mm 1 m/s 718 mmHg 56%
17:00 +31°C° 0 mm 1 m/s 718 mmHg 63%
18:00 +29°C° 0 mm 1 m/s 718 mmHg 70%
19:00 +27°C° 0 mm 1 m/s 718 mmHg 77%
20:00 +26°C° 0.1 mm 1 m/s 718 mmHg 79%
21:00 +26°C° 0.1 mm 1 m/s 718 mmHg 81%
22:00 +25°C° 0.1 mm 1 m/s 719 mmHg 83%
23:00 +25°C° 0 mm 1 m/s 719 mmHg 84%

Amanhã, 16 Junho, Quarta-feira

Tempo Temperatura Precipitação Vento Pressão Humidade
00:00 +23°C° 0 mm 0 m/s 719 mmHg 84%
01:00 +23°C° 0 mm 0 m/s 718 mmHg 84%
02:00 +24°C° 2 mm 1 m/s 719 mmHg 89%
03:00 +24°C° 2 mm 2 m/s 719 mmHg 93%
04:00 +22°C° 2 mm 3 m/s 719 mmHg 98%
05:00 +22°C° 2.9 mm 3 m/s 720 mmHg 98%
06:00 +23°C° 2.9 mm 2 m/s 720 mmHg 98%
07:00 +23°C° 2.9 mm 2 m/s 721 mmHg 98%
08:00 +23°C° 5.2 mm 1 m/s 721 mmHg 98%
09:00 +24°C° 5.2 mm 1 m/s 722 mmHg 98%
10:00 +24°C° 5.2 mm 1 m/s 722 mmHg 98%
11:00 +24°C° 1.2 mm 1 m/s 721 mmHg 96%
12:00 +24°C° 1.2 mm 1 m/s 721 mmHg 94%
13:00 +24°C° 1.2 mm 1 m/s 720 mmHg 93%
14:00 +24°C° 0.2 mm 1 m/s 720 mmHg 94%
15:00 +24°C° 0.2 mm 1 m/s 720 mmHg 95%
16:00 +24°C° 0.2 mm 1 m/s 720 mmHg 96%
17:00 +23°C° 0 mm 1 m/s 720 mmHg 96%
18:00 +23°C° 0 mm 1 m/s 720 mmHg 96%
19:00 +23°C° 0 mm 1 m/s 720 mmHg 96%
20:00 +23°C° 0 mm 1 m/s 720 mmHg 96%
21:00 +20°C° 0 mm 0 m/s 720 mmHg 97%
22:00 +20°C° 0 mm 0 m/s 721 mmHg 97%
23:00 +20°C° 0 mm 0 m/s 720 mmHg 97%

Depois de amanhã, 17 Junho, Quinta-feira

Tempo Temperatura Precipitação Vento Pressão Humidade
00:00 +20°C° 0 mm 0 m/s 720 mmHg 97%
01:00 +22°C° 0 mm 1 m/s 720 mmHg 97%
02:00 +20°C° 0 mm 0 m/s 720 mmHg 96%
03:00 +20°C° 0 mm 0 m/s 721 mmHg 96%
04:00 +20°C° 0 mm 0 m/s 721 mmHg 96%
05:00 +20°C° 0.3 mm 0 m/s 721 mmHg 96%
06:00 +21°C° 0.3 mm 0 m/s 722 mmHg 96%
07:00 +23°C° 0.3 mm 1 m/s 722 mmHg 95%
08:00 +24°C° 0 mm 1 m/s 722 mmHg 92%
09:00 +25°C° 0 mm 1 m/s 723 mmHg 88%
10:00 +25°C° 0 mm 1 m/s 723 mmHg 84%
11:00 +24°C° 0 mm 0 m/s 722 mmHg 80%
12:00 +26°C° 0 mm 0 m/s 722 mmHg 75%
13:00 +27°C° 0 mm 0 m/s 721 mmHg 70%
14:00 +27°C° 0 mm 0 m/s 721 mmHg 70%
15:00 +27°C° 0 mm 0 m/s 721 mmHg 69%
16:00 +29°C° 0 mm 1 m/s 721 mmHg 69%
17:00 +25°C° 0.2 mm 0 m/s 721 mmHg 76%
18:00 +24°C° 0.2 mm 0 m/s 721 mmHg 84%
19:00 +22°C° 0.2 mm 0 m/s 721 mmHg 91%
20:00 +22°C° 0.1 mm 0 m/s 721 mmHg 93%
21:00 +21°C° 0.1 mm 0 m/s 721 mmHg 94%
22:00 +21°C° 0.1 mm 0 m/s 721 mmHg 96%
23:00 +21°C° 0.1 mm 0 m/s 721 mmHg 96%

18 Junho, Sexta-feira

Tempo Temperatura Precipitação Vento Pressão Humidade
00:00 +21°C° 0.1 mm 0 m/s 721 mmHg 96%
01:00 +21°C° 0.1 mm 0 m/s 721 mmHg 96%
02:00 +21°C° 0 mm 0 m/s 721 mmHg 96%
03:00 +20°C° 0 mm 0 m/s 721 mmHg 96%
04:00 +20°C° 0 mm 0 m/s 721 mmHg 96%
05:00 +21°C° 0 mm 0 m/s 721 mmHg 94%
06:00 +22°C° 0 mm 0 m/s 722 mmHg 92%
07:00 +23°C° 0 mm 0 m/s 722 mmHg 90%
08:00 +25°C° 0 mm 0 m/s 722 mmHg 82%
09:00 +27°C° 0 mm 0 m/s 723 mmHg 73%
10:00 +29°C° 0 mm 0 m/s 723 mmHg 64%
11:00 +32°C° 0.1 mm 1 m/s 722 mmHg 62%
12:00 +32°C° 0.1 mm 1 m/s 722 mmHg 59%
13:00 +33°C° 0.1 mm 1 m/s 721 mmHg 57%
14:00 +31°C° 0.5 mm 1 m/s 721 mmHg 65%
15:00 +30°C° 0.5 mm 1 m/s 720 mmHg 72%
16:00 +29°C° 0.5 mm 1 m/s 720 mmHg 80%
17:00 +27°C° 0.1 mm 1 m/s 720 mmHg 82%
18:00 +26°C° 0.1 mm 1 m/s 720 mmHg 85%
19:00 +25°C° 0.1 mm 1 m/s 720 mmHg 87%
20:00 +25°C° 0 mm 1 m/s 721 mmHg 87%
21:00 +23°C° 0 mm 0 m/s 721 mmHg 88%
22:00 +22°C° 0 mm 0 m/s 721 mmHg 88%
23:00 +22°C° 0.3 mm 0 m/s 721 mmHg 90%

19 Junho, Sábado

Tempo Temperatura Precipitação Vento Pressão Humidade
00:00 +21°C° 0.3 mm 0 m/s 721 mmHg 92%
01:00 +23°C° 0.3 mm 1 m/s 721 mmHg 95%
02:00 +23°C° 0.5 mm 1 m/s 721 mmHg 96%
03:00 +23°C° 0.5 mm 1 m/s 721 mmHg 97%
04:00 +23°C° 0.5 mm 1 m/s 721 mmHg 98%
05:00 +23°C° 0.3 mm 1 m/s 722 mmHg 97%
06:00 +23°C° 0.3 mm 1 m/s 722 mmHg 97%
07:00 +23°C° 0.3 mm 1 m/s 723 mmHg 97%
08:00 +24°C° 0.2 mm 1 m/s 723 mmHg 94%
09:00 +25°C° 0.2 mm 2 m/s 723 mmHg 91%
10:00 +25°C° 0.2 mm 2 m/s 723 mmHg 87%
11:00 +27°C° 0 mm 2 m/s 723 mmHg 79%
12:00 +28°C° 0 mm 1 m/s 722 mmHg 71%
13:00 +30°C° 0 mm 1 m/s 722 mmHg 62%
14:00 +30°C° 0 mm 1 m/s 721 mmHg 65%
15:00 +30°C° 0 mm 1 m/s 721 mmHg 67%
16:00 +29°C° 0 mm 2 m/s 720 mmHg 70%
17:00 +28°C° 0 mm 1 m/s 720 mmHg 77%
18:00 +26°C° 0 mm 1 m/s 720 mmHg 83%
19:00 +22°C° 0 mm 0 m/s 720 mmHg 90%
20:00 +22°C° 0 mm 0 m/s 721 mmHg 90%
21:00 +22°C° 0 mm 0 m/s 721 mmHg 90%
22:00 +22°C° 0 mm 0 m/s 722 mmHg 90%
23:00 +22°C° 0.3 mm 0 m/s 722 mmHg 91%

20 Junho, Domingo

Tempo Temperatura Precipitação Vento Pressão Humidade
00:00 +22°C° 0.3 mm 0 m/s 721 mmHg 92%
01:00 +21°C° 0.3 mm 0 m/s 721 mmHg 93%
02:00 +21°C° 0.6 mm 0 m/s 721 mmHg 94%
03:00 +23°C° 0.6 mm 1 m/s 721 mmHg 96%
04:00 +23°C° 0.6 mm 1 m/s 721 mmHg 97%
05:00 +23°C° 0.1 mm 1 m/s 722 mmHg 97%
06:00 +23°C° 0.1 mm 1 m/s 722 mmHg 97%
07:00 +23°C° 0.1 mm 1 m/s 722 mmHg 97%
08:00 +24°C° 0 mm 1 m/s 723 mmHg 96%
09:00 +24°C° 0 mm 1 m/s 723 mmHg 95%
10:00 +25°C° 0 mm 1 m/s 723 mmHg 94%
11:00 +25°C° 0.1 mm 1 m/s 723 mmHg 93%
12:00 +25°C° 0.1 mm 2 m/s 722 mmHg 92%
13:00 +25°C° 0.1 mm 2 m/s 722 mmHg 91%
14:00 +25°C° 0 mm 1 m/s 721 mmHg 90%
15:00 +24°C° 0 mm 1 m/s 721 mmHg 90%
16:00 +24°C° 0 mm 1 m/s 720 mmHg 89%
17:00 +24°C° 0 mm 1 m/s 720 mmHg 90%
18:00 +23°C° 0 mm 1 m/s 720 mmHg 91%
19:00 +21°C° 0 mm 0 m/s 720 mmHg 92%
20:00 +22°C° 0 mm 1 m/s 720 mmHg 92%
21:00 +22°C° 0 mm 1 m/s 720 mmHg 92%
22:00 +22°C° 0 mm 1 m/s 720 mmHg 93%
23:00 +22°C° 0 mm 1 m/s 720 mmHg 93%
Mostrar mais